Regional Weather Roundup
Issued by NWS

Home | Current Version | Previous Version | Graphics & Text | Print | Product List | Glossary On
Versions: 1 2 3 4 5 6 7 8 9 10 11 12 13 14 15 16 17 18 19 20 21 22 23 24 25 26 27 28 29 30 31 32 33 34 35 36 37 38 39 40 41 42 43 44 45 46 47 48 49 50
000
ASUS43 KLSX 251657
RWRMO

WEATHER SUMMARY FOR MISSOURI
NATIONAL WEATHER SERVICE SPRINGFIELD MO
1200 PM CDT SUN JUN 25 2017

NOTE: "FAIR" INDICATES FEW OR NO CLOUDS BELOW 12,000 FEET WITH NO
       SIGNIFICANT WEATHER AND/OR OBSTRUCTIONS TO VISIBILITY.
       CURRENT SKY AND/OR WEATHER CONDITIONS ARE NOT AVAILABLE FOR
       CHILLICOTHE AND FARMINGTON.

MOZ001>031-035>038-043-044-053-054-251800-
...NORTHERN AND WESTERN MISSOURI...

CITY           SKY/WX    TMP DP  RH WIND       PRES   REMARKS
KANSAS CTY INT SUNNY     74  49  41 N13G18    30.30S
LEE`S SUMMIT   SUNNY     75  49  39 MISG      30.30S
ST JOSEPH      SUNNY     74  47  38 N13G18    30.31S
CHILLICOTHE      N/A     72  45  37 NW13G20   30.29S

$$
MOZ066>068-077>081-088>096-101>105-251800-
...SOUTHWEST MISSOURI...

CITY           SKY/WX    TMP DP  RH WIND       PRES   REMARKS
SPRINGFIELD    SUNNY     78  56  46 W8        30.29S
JOPLIN         SUNNY     82  55  39 N7        30.29F
BRANSON        MOSUNNY   79  48  34 CALM      30.31F

$$
MOZ032>034-039>042-045>050-055>058-069>072-251800-
...CENTRAL MISSOURI...

CITY           SKY/WX    TMP DP  RH WIND       PRES   REMARKS
COLUMBIA       NOT AVBL
JEFFERSON CITY SUNNY     78  44  29 NW14G22   30.24F
ROLLA          SUNNY     76  54  46 NW9       30.26S
SEDALIA        SUNNY     78  55  44 N10       30.29S
WARRENSBURG    SUNNY     73  46  38 N8        30.29R

$$
MOZ051-052-059>065-251800-
...EAST CENTRAL MISSOURI...

CITY           SKY/WX    TMP DP  RH WIND       PRES   REMARKS
ST LOUIS INTL  SUNNY     81  45  28 NW14G23   30.22F

$$
MOZ072>076-082>087-097>100-106>115-251800-
...SOUTH CENTRAL AND SOUTHEAST MISSOURI...

CITY           SKY/WX    TMP DP  RH WIND       PRES   REMARKS
CAPE GIRARDEAU SUNNY     81  53  37 W13       30.22F
POPLAR BLUFF   SUNNY     82  53  36 VRB3      30.24F
WEST PLAINS    SUNNY     80  47  31 VRB5      30.28F

$$


USA.gov is the U.S. government's official web portal to all federal, state and local government web resources and services.